CW9927 Weather Reports


time (UTC)temp
F
wind
direction
speed
knots
gust
knots
rain 1hr
in
rain 24hr
in
rain mn
in
humidity
%
barometer
mb
20260906152317 57 0.0 0.0 0.00 0.00 0.00 84 1016.5
20260906151317 55 0.0 0.0 0.00 0.00 0.00 88 1016.4
20260906150317 54 0.0 0.0 0.00 0.00 0.00 90 1016.5
20260906145317 52 0.0 0.0 0.00 0.00 0.00 90 1016.4
20260906144317 51 0.0 0.0 0.00 0.00 0.00 90 1016.3
20260906143317 49 0.0 0.0 0.00 0.00 0.00 88 1016.2
20260906142337 49 0.0 0.0 0.00 0.00 0.00 87 1016.1
20260906141317 49 0.0 0.0 0.00 0.00 0.00 87 1016.0
20260906140317 48 0.0 0.0 0.00 0.00 0.00 87 1015.9
20260906135317 48 0.0 0.0 0.00 0.00 0.00 86 1015.7
20260906134317 49 0.0 0.0 0.00 0.00 0.00 86 1015.6
20260906133317 49 0.0 0.0 0.00 0.00 0.00 86 1015.6
20260906132317 49 0.0 0.0 0.00 0.00 0.00 86 1015.4
20260906131317 49 0.0 0.0 0.00 0.00 0.00 85 1015.4
20260906130344 50 0.0 0.0 0.00 0.00 0.00 85 1015.3
20260906130240 50 0.0 0.0 0.00 0.00 0.00 85 1015.3
20260906125116 50 0.0 0.0 0.00 0.00 0.00 85 1015.3
20260906124116 50 0.0 0.0 0.00 0.00 0.00 85 1015.1
20260906123116 50 0.0 0.0 0.00 0.00 0.00 84 1015.1
20260906122116 50 0.0 0.0 0.00 0.00 0.00 84 1015.1
20260906121116 50 0.0 0.0 0.00 0.00 0.00 83 1015.1
20260906120116 50 0.0 0.0 0.00 0.00 0.00 82 1015.2
20260906115116 50 0.0 0.0 0.00 0.00 0.00 82 1015.1
20260906114116 51 0.0 0.0 0.00 0.00 0.00 82 1015.2
20260906113136 51 0.0 0.0 0.00 0.00 0.00 82 1015.1
20260906111116 52 0.0 0.0 0.00 0.00 0.00 83 1015.2
20260906110138 52 0.0 0.0 0.00 0.00 0.00 83 1015.1
20260906105116 52 0.0 0.0 0.00 0.00 0.00 81 1015.3
20260906104116 52 0.0 0.0 0.00 0.00 0.00 81 1015.2
20260906103116 53 0.0 0.0 0.00 0.00 0.00 80 1015.3
20260906102116 53 0.0 0.0 0.00 0.00 0.00 81 1015.2
20260906101116 54 0.0 0.0 0.00 0.00 0.00 81 1015.2
20260906100116 54 0.0 0.0 0.00 0.00 0.00 81 1015.2
20260906095118 53 0.0 0.0 0.00 0.00 0.00 79 1015.2
20260906094116 54 0.0 0.0 0.00 0.00 0.00 79 1015.3
20260906093116 54 0.0 0.0 0.00 0.00 0.00 78 1015.3
20260906092116 55 0.0 0.0 0.00 0.00 0.00 78 1015.2
20260906091136 55 0.0 0.0 0.00 0.00 0.00 78 1015.3
20260906090116 56 0.0 0.0 0.00 0.00 0.00 78 1015.3
20260906085116 56 0.0 0.0 0.00 0.00 0.00 76 1015.3
20260906084116 56 0.0 0.0 0.00 0.00 0.00 76 1015.3
20260906083136 57 0.0 0.0 0.00 0.00 0.00 75 1015.4
20260906082116 58 0.0 0.0 0.00 0.00 0.00 74 1015.4
20260906081116 58 0.0 0.0 0.00 0.00 0.00 74 1015.5
20260906080116 59 0.0 0.0 0.00 0.00 0.00 74 1015.4
20260906075116 59 0.0 0.0 0.00 0.00 0.00 74 1015.4
20260906074116 60 0.0 0.0 0.00 0.00 0.00 74 1015.5
20260906073116 60 0.0 0.0 0.00 0.00 0.00 73 1015.4
20260906072116 60 0.0 0.0 0.00 0.00 0.00 73 1015.3
20260906071116 61 0.0 0.0 0.00 0.00 0.00 72 1015.2
20260906065116 61 0.0 0.0 0.00 0.00 0.00 70 1015.2
20260906064116 61 0.0 0.0 0.00 0.00 0.00 69 1015.2
20260906063116 62 0.0 0.0 0.00 0.00 0.00 69 1015.0
20260906062116 62 0.0 0.0 0.00 0.00 0.00 68 1014.9
20260906061116 62 0.0 0.0 0.00 0.00 0.00 68 1014.9
20260906060116 63 0.0 0.0 0.00 0.00 0.00 68 1014.9
20260906055116 63 0.0 0.0 0.00 0.00 0.00 67 1014.9
20260906054117 63 0.0 0.0 0.00 0.00 0.00 66 1014.8
20260906053116 63 0.0 0.0 0.00 0.00 0.00 66 1014.8
20260906052116 63 0.0 0.0 0.00 0.00 0.00 65 1014.8
20260906051116 64 0.0 0.0 0.00 0.00 0.00 64 1014.9
20260906050137 64 0.0 0.0 0.00 0.00 0.00 62 1014.9
20260906045116 64 0.0 0.0 0.00 0.00 0.00 61 1014.8
20260906044116 65 0.0 0.0 0.00 0.00 0.00 60 1014.9
20260906043116 65 0.0 0.0 0.00 0.00 0.00 59 1014.7
20260906042116 65 0.0 0.9 0.00 0.00 0.00 59 1014.6
20260906041117 66 0.0 0.0 0.00 0.00 0.00 58 1014.5
20260906040116 66 0.0 0.0 0.00 0.00 0.00 58 1014.3
20260906035116 67 0.0 0.0 0.00 0.00 0.00 58 1014.3
20260906034137 67 0.0 0.0 0.00 0.00 0.00 57 1014.2
20260906033116 67 0.0 0.0 0.00 0.00 0.00 56 1014.0
20260906032116 68 0.0 0.0 0.00 0.00 0.00 56 1014.0
20260906031116 68 0.0 0.0 0.00 0.00 0.00 55 1013.9
20260906030116 69 0.0 0.0 0.00 0.00 0.00 54 1013.8
20260906025136 69 0.0 0.0 0.00 0.00 0.00 54 1013.7
20260906024116 69 0.0 0.0 0.00 0.00 0.00 53 1013.5
20260906023116 70 0.0 0.0 0.00 0.00 0.00 52 1013.5
20260906022137 71 0.0 0.0 0.00 0.00 0.00 51 1013.4
20260906021157 72 0.0 0.0 0.00 0.00 0.00 49 1013.3
20260906020116 73 0.0 0.0 0.00 0.00 0.00 48 1013.3
20260906015116 74 0.0 0.0 0.00 0.00 0.00 46 1013.2
20260906014116 74 0.0 0.0 0.00 0.00 0.00 43 1013.2
20260906013136 75 0.0 0.0 0.00 0.00 0.00 40 1013.2
20260906012117 76 0.0 0.0 0.00 0.00 0.00 43 1013.1
20260906011116 77 0.0 0.9 0.00 0.00 0.00 42 1013.1
20260906005016 78 0.0 0.0 0.00 0.00 0.00 35 1013.0
20260906004036 79 225 3.5 6.1 0.00 0.00 0.00 34 1013.0
20260906003018 79 225 1.7 6.1 0.00 0.00 0.00 34 1012.9
20260906002036 80 0.0 1.7 0.00 0.00 0.00 34 1012.8
20260906001016 81 225 1.7 7.0 0.00 0.00 0.00 34 1012.8
20260906000016 81 225 0.9 5.2 0.00 0.00 0.00 36 1012.8
20260905235018 82 248 1.7 4.3 0.00 0.00 0.00 35 1012.8
20260905234016 82 0.0 0.9 0.00 0.00 0.00 36 1012.8
20260905233018 82 0.0 0.0 0.00 0.00 0.00 36 1012.8
20260905232056 82 270 2.6 6.1 0.00 0.00 0.00 36 1012.9
20260905231016 82 225 2.6 7.0 0.00 0.00 0.00 36 1013.0
20260905230137 82 248 0.9 4.3 0.00 0.00 0.00 36 1013.1
20260905225117 83 248 3.5 7.8 0.00 0.00 0.00 36 1013.3
20260905224119 83 248 1.7 7.0 0.00 0.00 0.00 37 1013.3
20260905223117 83 0.0 0.9 0.00 0.00 0.00 38 1013.3
20260905222138 83 225 3.5 7.0 0.00 0.00 0.00 37 1013.3
20260905221117 84 270 2.6 6.1 0.00 0.00 0.00 38 1013.4
20260905220117 83 270 3.5 7.8 0.00 0.00 0.00 37 1013.4
20260905215117 83 0.0 0.0 0.00 0.00 0.00 36 1013.6
20260905214117 84 0.0 0.0 0.00 0.00 0.00 37 1013.5
20260905213117 84 225 2.6 8.7 0.00 0.00 0.00 37 1013.6
20260905212117 84 0.0 0.0 0.00 0.00 0.00 38 1013.7
20260905211117 83 0.0 0.0 0.00 0.00 0.00 38 1013.7
20260905210118 83 0.0 0.0 0.00 0.00 0.00 38 1013.7
20260905205117 84 0.0 0.0 0.00 0.00 0.00 37 1013.8
20260905204119 84 0.0 0.0 0.00 0.00 0.00 38 1013.8
20260905203117 83 0.0 0.0 0.00 0.00 0.00 38 1013.8
20260905202117 83 0.0 0.0 0.00 0.00 0.00 38 1013.9
20260905201117 82 0.0 0.0 0.00 0.00 0.00 39 1014.1
20260905200117 81 0.0 0.0 0.00 0.00 0.00 40 1014.2
20260905195117 81 0.0 0.0 0.00 0.00 0.00 37 1014.2
20260905194119 80 0.0 0.0 0.00 0.00 0.00 37 1014.4
20260905193117 80 0.0 0.0 0.00 0.00 0.00 38 1014.4
20260905192117 78 0.0 0.0 0.00 0.00 0.00 37 1014.6
20260905191137 78 0.0 0.0 0.00 0.00 0.00 34 1014.7
20260905185116 76 0.0 0.0 0.00 0.00 0.00 36 1014.8
20260905184116 75 0.0 0.0 0.00 0.00 0.00 37 1014.9
20260905183116 75 0.0 0.0 0.00 0.00 0.00 37 1015.0
20260905182116 75 0.0 0.0 0.00 0.00 0.00 41 1015.2
20260905181116 73 0.0 0.0 0.00 0.00 0.00 40 1015.2
20260905180116 72 0.0 0.0 0.00 0.00 0.00 49 1015.2
20260905175116 71 0.0 0.0 0.00 0.00 0.00 53 1015.3
20260905174117 70 0.0 0.0 0.00 0.00 0.00 56 1015.3
20260905173116 69 0.0 0.0 0.00 0.00 0.00 57 1015.4
20260905172116 68 0.0 0.0 0.00 0.00 0.00 57 1015.5
20260905171116 67 0.0 0.0 0.00 0.00 0.00 60 1015.5
20260905170136 67 0.0 0.0 0.00 0.00 0.00 61 1015.5
20260905165116 67 0.0 0.0 0.00 0.00 0.00 60 1015.4
20260905164157 68 0.0 0.0 0.00 0.00 0.00 61 1015.3
20260905163116 67 0.0 0.0 0.00 0.00 0.00 62 1015.2
20260905162116 68 0.0 0.0 0.00 0.00 0.00 60 1015.4
20260905161116 67 0.0 0.0 0.00 0.00 0.00 63 1015.5
20260905160116 66 0.0 0.0 0.00 0.00 0.00 67 1015.5
20260905155116 65 0.0 0.0 0.00 0.00 0.00 67 1015.4
20260905154116 65 0.0 0.0 0.00 0.00 0.00 69 1015.4
20260905153116 63 0.0 0.0 0.00 0.00 0.00 73 1015.3